This is the latest recevied weather packets stored in our database for station/object OK2ILA-1. If no packets are shown the sender has not sent any weather packets the latest 1 day(s).
| Time | Temp. | Humidity | Pressure | Rain* | Wind** | Luminosity | Snow |
|---|---|---|---|---|---|---|---|
| 1778092841 | 20° C | 100% | 1006.4 hPa | 0 mm | - | - | - |
| 1778089958 | 21.11° C | 100% | 1006.2 hPa | 0 mm | - | - | - |
| 1778087796 | 22.22° C | 100% | 1006.3 hPa | 0 mm | - | - | - |
| 1778085634 | 22.78° C | 100% | 1006.4 hPa | 0 mm | - | - | - |
| 1778083472 | 23.89° C | 100% | 1006.8 hPa | 0 mm | - | - | - |
| 1778081310 | 22.78° C | 100% | 1007.4 hPa | 0 mm | - | - | - |
| 1778079148 | 23.89° C | 100% | 1007.7 hPa | 0 mm | - | - | - |
| 1778076986 | 23.89° C | 100% | 1007.9 hPa | 0 mm | - | - | - |
| 1778074103 | 23.89° C | 100% | 1008.2 hPa | 0 mm | - | - | - |
| 1778071941 | 25.56° C | 100% | 1008.2 hPa | 0 mm | - | - | - |
| 1778067617 | 23.89° C | 100% | 1008.5 hPa | 0 mm | - | - | - |
| 1778066896 | 24.44° C | 100% | 1008.5 hPa | 0 mm | - | - | - |
| 1778065455 | 24.44° C | 100% | 1008.6 hPa | 0 mm | - | - | - |
| 1778063293 | 23.89° C | 100% | 1008.6 hPa | 0 mm | - | - | - |
| 1778061131 | 23.33° C | 100% | 1009 hPa | 0 mm | - | - | - |
| 1778058969 | 21.67° C | 100% | 1009 hPa | 0 mm | - | - | - |
| 1778058248 | 22.22° C | 100% | 1009 hPa | 0 mm | - | - | - |
| 1778056086 | 21.67° C | 100% | 1008.7 hPa | 0 mm | - | - | - |
| 1778055365 | 21.67° C | 100% | 1008.6 hPa | 0 mm | - | - | - |
| 1778053924 | 21.11° C | 100% | 1008.7 hPa | 0 mm | - | - | - |
| 1778051762 | 19.44° C | 100% | 1008.6 hPa | 0 mm | - | - | - |
| 1778051041 | 19.44° C | 100% | 1008.6 hPa | 0 mm | - | - | - |
| 1778049600 | 18.33° C | 100% | 1008.4 hPa | 0 mm | - | - | - |
| 1778048879 | 18.33° C | 100% | 1008.3 hPa | 0 mm | - | - | - |
| 1778047438 | 17.22° C | 100% | 1008.3 hPa | 0 mm | - | - | - |
* Rain latest hour (hover to see other rain measurements)
** Current wind speed in m/s (hover to see current wind gust speed)